Regional Weather Roundup
Issued by NWS Jackson, KY

Home | Current Version | Previous Version | Graphics & Text | Print | Product List | Glossary On
Versions: 1 2 3 4 5 6 7 8 9 10 11 12 13 14 15 16 17 18 19 20 21 22 23 24 25 26 27 28 29 30 31 32 33 34 35 36 37 38 39 40 41 42 43 44 45 46 47 48 49 50
000
ASUS43 KJKL 200419
RWRJKL

EAST KENTUCKY HOURLY WEATHER ROUNDUP
NATIONAL WEATHER SERVICE JACKSON KY
1200 AM EDT WED AUG 20 2014

NOTE: "FAIR" INDICATES FEW OR NO CLOUDS BELOW 12,000 FEET WITH
NO SIGNIFICANT WEATHER AND/OR OBSTRUCTIONS TO VISIBILITY.

* THESE REPORTS ARE NOT UNDER NWS QUALITY CONTROL AND MAY NOT
  REPORT WEATHER SUCH AS PRECIPITATION AND FOG.

KYZ079-080-083-085-087-088-110-112-115-119-120-200500
...EASTERN KENTUCKY...

CITY           SKY/WX    TMP DP  RH WIND       PRES   REMARKS
JACKSON        CLEAR     73  69  87 CALM      29.93S
LONDON         CLEAR     72  69  90 CALM      29.93F
SOMERSET*      PTCLDY    72  72 100 CALM      29.92F FOG
MONTICELLO*    PTCLDY    71  70  97 CALM      29.93S FOG
WILLIAMSBURG*  CLEAR     70  70 100 CALM      29.93F
MIDDLESBORO*   CLEAR     69  68  96 CALM      29.95F
HARLAN APT*    CLOUDY    68  68 100 MISG      29.96S VSB<1/4
BLACK MTN*       N/A     64  63  94 S2          N/A
PIKEVILLE APT* CLEAR     72  70  94 CALM      29.95R FOG
BIG SANDY*     CLEAR     73  72  95 SW5       29.94R
MOREHEAD APT*  PTCLDY    73  70  88 S5        29.92S
ASHLAND*       CLEAR     72  66  83 CALM      29.87R THUNDER
$$

KYZ035-036-041-042-044-050-067-078-099-200500
...CENTRAL KENTUCKY...

CITY           SKY/WX    TMP DP  RH WIND       PRES   REMARKS
MT STERLING*   PTCLDY    73  70  88 SW3       29.91F
FLEMING/MASON* CLEAR     73  70  88 S7        29.89S
DANVILLE*      MOCLDY    72  70  94 CALM      29.91S
RICHMOND*      MOCLDY    72  68  88 S3        29.90F
LEXINGTON      PTCLDY    76  69  79 S6        29.89S
FRANKFORT      MOCLDY    76  70  82 S5        29.87R
$$

KYZ091>093-OHZ055-061-077-WVZ005-015-034-035-042-200500
...SOUTHERN OHIO/WEST VIRGINIA...

CITY           SKY/WX    TMP DP  RH WIND       PRES   REMARKS
COVINGTON      MOCLDY    76  69  79 S6        29.85F
COLUMBUS       CLOUDY    80  68  66 S6        29.84S
DAYTON         CLOUDY    77  69  76 SW5       29.86R
WILMINGTON     CLOUDY    73  67  81 S5        29.86S
HUNTINGTON     CLEAR     73  71  93 S3        29.88S
CHARLESTON     CLEAR     71  71 100 CALM      29.90S FOG
PINEVILLE*     FOG       70  70 100 MISG      30.02R VSB 1/4
BECKLEY        CLEAR     67  65  93 S3        30.00S FOG
BLUEFIELD      CLEAR     69  65  86 S3        30.03S FOG
$$

VAZ002-007-008-TNZ017-027-036-066-071-200500
...SOUTHWEST VIRGINIA/EAST TENNESSEE...

CITY           SKY/WX    TMP DP  RH WIND       PRES   REMARKS
WISE*          CLEAR     68  68 100 SW3       30.03S
JONESVILLE*      N/A     68  68 100 CALM      29.98S FOG
ABINGDON*      CLEAR     68  68 100 CALM      30.01R FOG
BRISTOL        CLEAR     68  65  90 NE3       29.97R
KNOXVILLE      CLEAR     73  71  93 CALM      29.93S
OAK RIDGE      CLEAR     72  69  90 CALM      29.95S
CROSSVILLE     CLEAR     73  67  81 CALM      29.98F
NASHVILLE      CLEAR     78  73  84 CALM      29.90R
$$

...KEY TO REMARKS...
VSB - VISIBILITY IN MILES
WCI - WIND CHILL INDEX
HX  - HEAT INDEX

$$


USA.gov is the U.S. government's official web portal to all federal, state and local government web resources and services.